Weather Roundup
Issued by NWS

Home | Current Version | Previous Version | Text Only | Print | Product List | Glossary On
Versions: 1 2 3 4 5 6 7 8 9 10 11 12 13 14 15 16 17 18 19 20 21 22 23 24 25 26 27 28 29 30 31 32 33 34 35 36 37 38 39 40 41 42 43 44 45 46 47 48 49 50
000
NZUS93 KARX 181459
HRRWXR

CURRENT HOURLY OBSERVATIONS ACROSS
MUCH OF THE UPPER MISSISSIPPI VALLEY
NATIONAL WEATHER SERVICE LA CROSSE WI
1000 AM CDT SAT APR 18 2015


...SOUTHEAST MINNESOTA...


CITY           SKY/WX    TMP DP  RH WIND       PRES   REMARKS
ROCHESTER      PTSUNNY   60  36  40 E15       30.07F
ROCHESTER/MAYO FAIR      59  33  37 E12G20    30.06F
WINONA         PTSUNNY   59  34  38 SE12      30.09S
AUSTIN         PTSUNNY   63  37  39 E14       30.03F
ALBERT LEA     PTSUNNY   63  34  34 E14       30.02F
DODGE CENTER   PTSUNNY   63  34  34 E15       30.05F
PRESTON        PTSUNNY   60  33  37 E12       30.07S
OWATONNA       PTSUNNY   63  32  31 E15       30.04F
FARIBAULT      PTSUNNY   61  32  33 E15       30.06S
$$

...ELSEWHERE IN MINNESOTA...


CITY           SKY/WX    TMP DP  RH WIND       PRES   REMARKS
MINNEAPOLIS    PTSUNNY   60  32  34 E15       30.08F
INTNL FALLS    SUNNY     45  29  53 E14G22    30.21F
DULUTH         SUNNY     43  32  65 E18G32    30.20F
RED WING       MOSUNNY   59  28  31 E13       30.07F
REDWOOD FALLS  MOSUNNY   60  31  33 E10G17    30.02F
MANKATO        MOSUNNY   63  34  34 N6        30.04S
WORTHINGTON    CLOUDY    64  32  29 E17G23    30.00F
FAIRMONT       MOSUNNY   64  27  24 E10       30.01S
$$

...SOUTHWEST WISCONSIN...


CITY           SKY/WX    TMP DP  RH WIND       PRES   REMARKS
LA CROSSE      PTSUNNY   61  33  35 E10       30.09R
PRAIRIE DU CHI MOSUNNY   65  35  33 E10G16    30.05S
BOSCOBEL       MOSUNNY   67  38  34 E9G18     30.08R
LONE ROCK      NOT AVBL
PLATTEVILLE    MOSUNNY   67  39  35 E18       30.05R
FORT MC COY    MOSUNNY   58  30  35 E14G21    30.11S
VIROQUA        FAIR      59  33  37 E16       30.08S
WIS DELLS      SUNNY     56  34  43 E17       30.11S
$$

...ELSEWHERE IN WISCONSIN...


CITY           SKY/WX    TMP DP  RH WIND       PRES   REMARKS
MILWAUKEE      MOSUNNY   46  36  68 N23G35    30.14R
MADISON        PTSUNNY   60  35  39 E21       30.12R
GREEN BAY      SUNNY     47  37  68 NE24G36   30.20R
EAU CLAIRE     NOT AVBL
BLACK RVR FLS  FAIR      60  28  29 E13G18    30.11S
MEDFORD        SUNNY     52  32  46 E15G21    30.14S
WAUSAU         SUNNY     54  31  41 E17       30.14F
WIS RAPIDS     SUNNY     57  30  35 E15G25    30.16R
MARSHFIELD     SUNNY     56  30  37 E15G24    30.14R
RICE LAKE      SUNNY     52  31  44 E10       30.15S
$$

...NORTHEAST IOWA...


CITY           SKY/WX    TMP DP  RH WIND       PRES   REMARKS
DECORAH        PTSUNNY   63  37  39 E13G20    30.05S
MASON CITY     CLOUDY    64  37  36 E14       30.03S
CHARLES CITY   PTSUNNY   66  36  32 E17       30.03S
OELWEIN        MOSUNNY   68  37  32 E16       30.02F
$$

...ELSEWHERE IN IOWA...


CITY           SKY/WX    TMP DP  RH WIND       PRES   REMARKS
DES MOINES     CLOUDY    65  56  72 NE9       29.96S
IOWA CITY      CLOUDY    69  52  54 E8        30.01F
FORT DODGE     CLOUDY    57  46  67 E12       30.00S
$$

...NORTHERN ILLINOIS...


CITY           SKY/WX    TMP DP  RH WIND       PRES   REMARKS
CHICAGO-OHARE  PTSUNNY   56  39  53 NE15G28   30.10R
CHICAGO-MIDWAY PTSUNNY   60  42  51 NE14      30.09R
MOLINE         PTSUNNY   69  52  54 NE6       30.01S
ROCKFORD       PTSUNNY   66  42  41 E15       30.08R
PEORIA         PTSUNNY   71  57  61 S3        30.01F
$$

NOTE: "FAIR" INDICATES FEW OR NO CLOUDS BELOW 12,000 FEET WITH NO
SIGNIFICANT WEATHER AND/OR OBSTRUCTIONS TO VISIBILITY. WIND
SPEEDS ARE IN MILES-PER-HOUR.



USA.gov is the U.S. government's official web portal to all federal, state and local government web resources and services.